Location: Columbia
(38.9520°N, 92.3340°W)
Time: 14:39:53
(UTC-05:00)

Meteor 1-4 Rocket - Visible Passes

Search period start: 28 May 2016 00:00
Search period end: 07 June 2016 00:00
Orbit: 456 x 514 km, 81.2° (Epoch: 28 May)

Date Brightness Start Highest point End Pass type
(mag) Time Alt. Az. Time Alt. Az. Time Alt. Az.
28 May 3.5 02:54:46 10° N 02:58:24 44° ENE 02:58:38 43° E visible
28 May 4.9 04:32:31 10° WNW 04:32:59 10° W 04:32:59 10° W visible
29 May 4.3 02:30:25 10° NNE 02:33:42 28° ENE 02:33:52 27° E visible
29 May 4.5 04:06:14 10° NW 04:08:13 16° W 04:08:13 16° W visible
30 May 5.0 02:06:18 10° NNE 02:08:58 18° ENE 02:09:08 18° ENE visible
30 May 4.1 03:40:59 10° NW 03:43:29 24° WNW 03:43:29 24° WNW visible
31 May 5.5 01:42:42 10° NE 01:44:12 12° ENE 01:44:25 12° ENE visible
31 May 3.6 03:16:02 10° NNW 03:18:46 35° WNW 03:18:46 35° WNW visible
01 Jun 3.4 02:51:14 10° NNW 02:54:05 47° NNW 02:54:05 47° NNW visible
02 Jun 3.6 02:26:35 10° N 02:29:25 47° NNE 02:29:25 47° NNE visible
03 Jun 4.2 02:02:04 10° N 02:04:46 35° NE 02:04:46 35° NE visible
04 Jun 4.7 01:37:43 10° NNE 01:40:08 24° NE 01:40:08 24° NE visible
04 Jun 5.0 03:13:26 10° NW 03:14:30 14° WNW 03:14:30 14° WNW visible
05 Jun 5.1 01:13:36 10° NNE 01:15:32 17° ENE 01:15:32 17° ENE visible
05 Jun 4.7 02:48:12 10° NW 02:49:53 20° NW 02:49:53 20° NW visible
06 Jun 5.5 00:50:04 10° NE 00:50:56 11° ENE 00:50:56 11° ENE visible
06 Jun 4.4 02:23:14 10° NNW 02:25:17 27° NW 02:25:17 27° NW visible
